TimeBST,TemperatureF,Dew PointF,Humidity,Sea Level PressureIn,VisibilityMPH,Wind Direction,Wind SpeedMPH,Gust SpeedMPH,PrecipitationIn,Events,Conditions,WindDirDegrees,DateUTC
8:20 AM,48.2,46.4,93,29.83,5.6,North,5.8,-,N/A,Rain,Light Rain,360,2012-10-06 07:20:00
8:50 AM,48.2,46.4,93,29.83,6.2,North,6.9,-,N/A,Rain,Light Rain,360,2012-10-06 07:50:00
9:20 AM,48.2,46.4,93,29.86,6.2,North,9.2,-,N/A,,Mostly Cloudy,360,2012-10-06 08:20:00
9:50 AM,50.0,48.2,94,29.89,6.2,North,11.5,-,N/A,,Scattered Clouds,350,2012-10-06 08:50:00
10:20 AM,50.0,48.2,94,29.89,6.2,North,11.5,-,N/A,,Partly Cloudy,360,2012-10-06 09:20:00
10:50 AM,50.0,46.4,87,29.92,6.2,North,11.5,-,N/A,,Scattered Clouds,350,2012-10-06 09:50:00
11:20 AM,50.0,46.4,87,29.92,6.2,North,11.5,-,N/A,,Scattered Clouds,360,2012-10-06 10:20:00
11:50 AM,50.0,46.4,87,29.95,6.2,North,8.1,-,N/A,,Partly Cloudy,360,2012-10-06 10:50:00
12:20 PM,50.0,46.4,87,29.95,6.2,NNE,6.9,-,N/A,,Partly Cloudy,20,2012-10-06 11:20:00
12:50 PM,53.6,48.2,82,29.95,6.2,ENE,5.8,-,N/A,,Partly Cloudy,60,2012-10-06 11:50:00
1:20 PM,55.4,48.2,77,29.95,6.2,ENE,8.1,-,N/A,,Partly Cloudy,60,2012-10-06 12:20:00
1:50 PM,55.4,46.4,72,29.95,6.2,ENE,11.5,-,N/A,,Partly Cloudy,70,2012-10-06 12:50:00
2:20 PM,55.4,46.4,72,29.95,6.2,East,11.5,-,N/A,,Partly Cloudy,80,2012-10-06 13:20:00
2:50 PM,55.4,46.4,72,29.95,6.2,ENE,9.2,-,N/A,,Partly Cloudy,60,2012-10-06 13:50:00
3:20 PM,55.4,46.4,72,29.95,6.2,East,8.1,-,N/A,,Partly Cloudy,80,2012-10-06 14:20:00
3:50 PM,55.4,46.4,72,29.95,6.2,East,9.2,-,N/A,,Partly Cloudy,90,2012-10-06 14:50:00
4:20 PM,55.4,48.2,77,29.95,6.2,ESE,9.2,-,N/A,,Partly Cloudy,110,2012-10-06 15:20:00
4:50 PM,55.4,46.4,72,29.95,6.2,East,10.4,-,N/A,,Partly Cloudy,100,2012-10-06 15:50:00
5:20 PM,53.6,46.4,77,29.95,6.2,East,9.2,-,N/A,,Partly Cloudy,80,2012-10-06 16:20:00
5:50 PM,53.6,46.4,77,29.95,6.2,East,9.2,-,N/A,,Partly Cloudy,80,2012-10-06 16:50:00
6:20 PM,51.8,46.4,82,29.95,6.2,ENE,11.5,-,N/A,,Partly Cloudy,70,2012-10-06 17:20:00
6:50 PM,51.8,46.4,82,29.98,6.2,NE,11.5,-,N/A,,Partly Cloudy,50,2012-10-06 17:50:00